Lapse_Rate
3.9 5.2 6.7 5.5 3.8 3.2 3.7 4.4 4.8 4.6 4.5 4.8 4.7 4.7 4.9 4.9 4.8 4.7 4.7 4.8 5.1 5.3 5.2 5.1 4.8 4.9 4.6 4.6 4.5 4.1 4.4 4.6
4.0 5.6 6.4 4.4 3.4 3.8 4.5 4.3 4.4 4.3 4.2 4.7 4.9 4.9 5.1 5.0 4.9 4.9 4.7 4.9 5.1 4.7 4.7 5.0 4.8 4.6 4.4 4.1 4.2 4.1 4.0 4.5
3.6 4.7 6.6 4.8 4.3 4.6 4.3 4.1 4.4 4.1 4.5 4.9 4.9 4.9 4.9 5.0 4.9 4.6 4.7 4.7 4.2 4.4 4.3 4.5 4.6 4.3 4.3 4.1 4.3 3.5 3.6 4.0
5.0 5.7 5.4 5.4 5.9 4.9 4.2 3.9 3.6 4.0 4.4 4.5 4.1 4.3 4.6 4.3 4.4 5.0 4.4 3.9 3.6 4.0 3.8 3.7 4.1 3.8 3.6 4.0 3.5 3.6 3.4 3.7
4.7 4.5 4.8 5.0 5.8 3.7 3.1 3.1 3.4 4.1 4.3 4.1 3.9 3.8 3.7 3.8 3.6 3.7 3.7 3.9 3.5 3.8 3.5 3.3 3.1 2.8 3.2 3.5 3.1 3.1 3.4 4.1
4.1 4.3 4.2 5.0 4.4 3.2 2.9 3.1 3.4 3.6 4.2 4.4 3.7 3.0 3.0 2.9 2.7 2.8 3.0 3.0 2.8 2.9 2.8 2.8 3.0 3.3 3.0 2.6 2.4 2.3 2.5 3.5
4.2 4.4 5.1 4.0 3.3 3.0 3.3 3.1 3.7 4.4 4.6 4.6 4.4 3.4 2.7 2.7 2.6 2.6 2.5 3.0 2.9 2.2 2.5 2.3 2.6 2.7 2.6 2.5 1.7 1.8 2.0 2.3
5.1 4.1 3.7 3.4 2.9 2.7 2.9 3.5 4.3 4.5 4.6 4.8 4.5 4.2 3.1 2.3 1.8 2.0 2.3 2.8 2.8 3.0 2.6 1.9 1.9 2.6 1.8 2.0 1.6 2.0 2.5 2.7
3.6 3.4 3.1 2.8 2.9 2.9 3.2 4.0 4.3 3.7 3.5 3.6 3.9 3.6 2.6 2.1 1.6 1.4 1.8 2.6 2.8 2.7 1.9 2.3 1.8 2.1 1.6 1.8 2.6 3.1 3.5 3.8
4.3 4.9 3.0 2.5 2.7 3.3 3.5 4.0 3.8 3.5 3.1 3.1 2.7 2.3 1.9 1.8 1.4 1.6 2.2 2.4 2.3 1.7 1.1 0.5 0.4 0.9 1.1 1.1 2.2 3.5 4.0 4.7
3.4 3.4 2.7 2.3 2.7 2.8 3.1 3.2 2.9 2.7 2.4 2.3 2.2 2.1 2.4 2.7 2.8 1.8 2.2 2.0 1.6 1.7 0.7 0.9 0.9 1.1 2.3 2.0 2.2 2.7 3.4 4.4
3.7 3.0 2.2 1.7 1.6 2.0 2.0 1.8 2.0 1.9 1.7 2.1 2.2 2.4 2.9 3.0 2.5 2.0 2.4 1.3 0.4 1.0 1.0 0.2 1.3 2.2 4.5 3.4 1.5 2.2 2.8 3.0
3.2 2.6 1.7 1.6 1.5 1.9 1.9 2.0 1.7 0.8 0.7 2.2 2.2 2.3 2.4 2.4 1.9 1.6 1.9 0.7 0.7 0.9 1.0 2.1 2.1 1.4 2.5 2.8 1.7 1.7 2.7 2.7
2.3 2.3 1.6 1.9 2.5 1.3 1.7 1.3 1.0 1.0 1.4 1.8 2.1 2.0 2.2 2.2 1.7 1.3 1.4 0.4 0.9 1.7 2.2 1.9 1.7 1.2 2.6 1.7 2.8 3.2 3.3 3.0
2.1 1.8 1.6 2.1 1.9 1.3 0.3 0.7 0.9 0.7 0.9 0.7 1.2 2.0 2.6 2.9 2.4 1.8 1.6 1.9 1.6 1.5 1.8 2.7 2.8 1.8 1.9 3.1 3.5 3.6 2.9 3.2
2.5 2.1 1.6 1.7 1.2 2.4 1.2 1.2 1.2 0.4 1.3 0.4 1.5 2.1 2.5 2.9 2.8 2.8 2.4 1.9 1.2 1.6 2.2 2.3 3.2 3.8 2.5 3.1 3.3 4.5 4.7 4.7
1.6 1.6 2.0 2.3 2.1 2.5 1.4 1.5 1.6 1.5 1.2 1.6 1.2 1.4 2.6 3.1 3.1 2.5 1.8 1.5 1.4 2.1 2.6 2.7 3.0 3.0 3.4 3.6 2.9 2.7 3.0 4.1
0.9 1.2 1.6 2.2 2.5 1.9 1.8 1.5 0.6 1.9 1.8 1.4 0.5 0.4 0.9 1.8 1.9 1.7 1.8 1.4 1.2 1.9 2.1 1.9 3.4 3.0 3.0 2.2 3.6 4.4 4.3 3.4
1.1 1.4 1.7 1.9 2.0 2.4 2.5 2.3 0.9 2.8 2.6 1.2 0.1 -0.4 -0.4 0.1 1.4 1.3 1.2 2.0 0.9 2.2 2.8 3.6 3.7 3.6 3.0 3.1 3.0 3.6 4.1 4.5
1.2 1.1 1.8 1.7 2.6 2.7 3.0 2.2 1.8 2.7 2.4 1.9 0.7 -0.2 0.2 1.1 0.0 1.7 1.3 0.2 2.1 3.0 3.3 3.0 2.3 2.6 2.9 3.1 3.7 3.6 4.1 4.8
Wind_Speed
11 26 21 21 22 22 23 21 18 19 18 16 16 18 18 18 17 17 18 21 23 24 23 23 23 22 20 21 18 15 14 13
20 20 12 16 16 23 21 21 16 17 18 16 18 17 18 17 18 16 19 20 21 23 23 24 24 22 22 19 17 15 13 12
13 13 14 12 13 12 16 17 18 18 17 16 17 16 16 17 17 18 19 21 23 23 23 24 24 22 21 18 21 16 14 11
8 10 13 10 6 9 11 13 15 16 16 14 13 12 12 15 17 17 19 21 22 22 21 20 23 21 19 20 18 16 15 10
8 8 12 10 6 9 9 13 14 14 14 13 12 11 13 13 14 13 17 20 18 20 19 20 18 17 21 17 15 14 12 11
11 14 13 10 7 7 9 9 10 11 12 13 13 10 10 10 10 13 17 17 17 18 17 18 21 21 17 16 15 13 12 10
9 10 8 7 8 8 4 8 10 13 14 14 13 12 8 11 10 14 15 17 17 15 16 16 17 15 16 16 14 14 14 13
13 12 11 11 6 10 10 10 13 14 14 15 12 14 13 11 10 11 13 15 15 16 12 13 11 11 12 12 11 15 16 17
9 7 8 7 6 8 11 12 13 10 11 13 14 15 13 13 12 9 13 17 17 16 13 12 9 9 8 11 11 11 12 14
7 7 7 7 6 9 10 12 11 10 10 8 9 11 15 15 12 10 17 16 15 11 8 4 4 4 3 4 6 5 7 11
8 7 8 8 7 8 10 12 9 10 8 10 12 14 18 17 11 12 17 13 11 7 2 2 2 2 2 2 2 3 4 6
6 5 6 7 6 6 4 5 5 8 9 11 14 16 18 16 13 14 15 8 5 4 3 4 2 2 0 2 2 1 3 3
8 8 7 7 3 3 3 3 3 2 7 11 14 16 17 15 12 12 11 4 5 6 3 3 1 1 2 2 2 2 2 3
9 11 10 8 6 3 3 3 2 2 4 10 14 15 16 14 13 9 10 4 5 4 3 2 1 2 3 1 3 3 2 2
12 13 13 10 8 6 3 5 4 1 2 3 6 14 15 14 15 13 10 6 4 3 3 3 3 2 3 3 1 3 1 2
9 8 9 8 10 9 7 5 4 4 4 3 4 12 13 14 14 13 10 9 5 4 4 2 2 0 2 1 1 2 3 3
8 8 8 7 10 10 7 5 2 2 2 6 4 5 10 13 14 13 11 11 8 7 5 5 2 1 2 0 0 1 1 3
9 10 10 8 10 7 10 9 7 4 4 5 4 4 5 11 16 17 16 12 8 7 7 4 3 3 2 1 3 3 3 3
9 11 12 12 11 11 12 11 9 9 8 7 7 4 3 6 10 8 8 12 12 8 5 5 4 3 3 3 3 4 2 2
13 12 11 12 12 13 10 9 7 6 9 8 7 5 6 11 12 10 11 15 12 9 6 3 5 3 5 5 3 3 2 3
Wind_Direction
78 99 119 116 112 111 120 127 131 126 122 120 118 119 116 112 109 105 105 108 106 97 92 90 89 87 87 84 74 68 67 60
97 104 76 90 104 121 134 129 125 122 120 127 127 119 116 115 111 103 95 97 102 93 91 89 85 81 77 76 68 55 54 55
91 83 106 89 109 124 117 123 135 123 124 135 130 130 124 120 115 109 106 102 96 94 92 90 87 76 76 71 66 58 60 53
120 135 99 75 60 104 129 127 121 127 141 148 136 134 125 116 113 115 107 100 96 95 92 86 82 80 77 67 63 55 53 46
119 116 102 136 150 153 125 123 129 148 157 151 146 136 126 126 116 107 111 107 100 97 88 84 84 81 69 65 62 55 50 45
137 139 149 209 152 161 130 133 150 160 168 163 148 138 134 125 123 125 120 116 105 99 95 86 78 77 77 65 53 45 36 23
159 163 202 198 152 143 153 157 170 178 185 182 169 149 149 137 131 130 122 122 117 103 93 85 83 80 69 64 59 51 43 32
189 189 189 175 177 158 163 181 183 194 196 198 190 172 161 148 141 125 121 123 112 104 100 96 93 87 71 65 62 49 44 36
199 186 169 161 172 153 164 189 187 194 203 199 193 185 165 148 135 130 127 125 117 108 99 98 91 79 73 62 56 55 60 56
182 185 176 166 165 169 171 185 181 178 174 163 165 168 165 139 132 136 140 132 129 111 103 85 83 76 64 53 46 81 76 74
179 175 176 169 168 166 171 178 167 175 169 163 162 156 154 149 143 148 146 142 124 123 90 121 96 86 129 94 61 90 77 86
177 169 170 154 138 137 127 122 138 178 185 170 162 162 161 154 147 144 147 128 113 119 119 51 99 154 276 37 339 1 71 78
179 164 171 151 145 138 142 164 148 183 197 164 166 169 166 156 143 143 151 137 152 131 101 123 95 94 60 336 343 332 350 320
173 181 174 176 167 144 144 147 154 176 169 174 180 170 167 155 148 150 156 134 118 135 149 137 118 166 155 145 11 334 300 262
190 187 182 179 161 135 91 92 74 106 185 180 184 174 165 162 166 155 145 122 141 155 127 128 155 220 219 138 126 228 329 334
192 189 183 175 165 174 166 177 159 201 190 148 159 175 169 172 156 148 141 142 122 115 121 123 99 125 333 318 6 115 201 312
180 172 178 176 184 188 174 151 165 119 129 149 130 134 155 153 149 140 132 125 123 115 96 74 38 135 209 200 332 290 202 205
172 172 178 182 187 184 185 184 175 161 169 158 144 143 145 150 148 143 137 124 117 118 114 143 193 185 203 168 209 214 222 203
173 179 190 195 190 202 206 199 184 183 180 170 163 154 143 145 137 123 109 106 117 143 157 182 188 177 172 206 214 222 204 210
185 192 199 194 204 217 214 189 187 198 188 176 164 150 136 132 114 128 138 153 149 162 191 167 160 162 205 221 238 247 214 203